Location: El Bakhil
(32.7726°N, 5.5387°W)
Time: 02:33:11
(UTC+00:00)

DIWATA 2B (PO-101) - Pass Details

Date: 01 August 2021
Orbit: 584 x 600 km, 97.9° (Epoch: 19 September)

Event Time Altitude Azimuth Distance (km) Brightness Sun altitude
Exits shadow 01:38:12 14° 4° (N) 1,666 ? -36.6°
Drops below altitude 10° 01:38:55 10° 1° (N) 1,942 ? -36.5°
Sets 01:41:08 0° 356° (N) 2,850 ? -36.4°
